Theta_e
313 313 314 314 314 313 313 314 314 314 314 314 315 315 316 316 315 314 317 318 318 322 327 327 327 329 329 331 333 332 331 331 331 331 330 329 328 328 329 328 327 326 324 324 324 323 323 322 321 321 320 319 319 318 317 317 317 317 316 316 315 314 314 313 312 312 311 310 310 311 311 311 311 312 312 312 311 311 311 311 311 311 311 311 311 311 310
314 314 313 314 314 313 313 314 315 315 315 314 315 316 317 318 317 316 318 319 318 321 325 326 328 330 330 332 332 331 331 330 330 329 329 328 327 326 326 326 325 324 323 323 323 322 321 320 320 319 319 318 317 316 316 316 315 315 315 315 314 314 313 312 312 311 310 310 311 311 311 311 311 311 311 311 311 311 310 310 310 310 310 310 310 309 309
314 314 314 314 314 313 313 313 314 315 315 315 315 316 317 318 317 318 319 318 319 322 325 328 331 331 331 331 330 331 331 329 329 329 328 327 326 326 325 324 323 322 322 322 322 321 320 319 319 318 318 317 317 316 315 315 315 314 314 314 314 313 312 312 311 311 310 310 310 310 310 310 310 310 310 310 310 310 310 310 309 309 309 309 309 309 308
314 314 314 315 315 315 314 314 314 315 315 315 316 316 317 317 317 318 318 317 320 328 331 332 332 331 330 330 329 330 330 329 330 328 327 327 326 324 323 322 321 321 321 321 320 320 319 319 318 317 317 316 315 315 314 314 314 314 313 313 313 312 312 312 311 311 310 310 310 310 310 310 310 310 310 310 309 309 309 309 309 308 308 308 309 308 308
314 315 315 315 315 315 314 314 315 316 315 316 317 316 317 318 317 318 318 316 321 329 331 331 331 329 329 329 329 329 329 330 329 327 327 326 324 323 322 321 320 320 320 320 319 318 318 318 317 316 316 315 314 313 313 313 313 313 313 313 312 312 312 311 311 310 310 310 310 310 310 310 309 309 309 309 309 309 309 309 308 308 307 308 308 308 307
313 315 315 315 315 315 316 319 318 317 316 316 316 317 317 317 317 318 318 317 321 326 327 329 330 329 328 328 328 328 329 329 328 327 326 324 323 321 320 319 320 320 319 318 317 317 317 317 316 315 315 314 313 313 313 313 313 312 312 312 312 311 311 311 310 310 310 310 310 309 309 309 309 309 309 308 308 308 308 308 308 307 307 307 307 307 306
313 315 315 316 316 317 321 324 323 321 319 317 316 317 317 317 317 318 318 318 321 325 326 328 330 330 328 328 328 328 328 328 327 326 325 323 322 321 319 320 320 319 317 316 316 316 317 316 316 315 315 314 313 313 312 312 312 312 312 311 311 311 310 310 310 310 310 309 309 309 309 308 308 308 308 308 308 308 307 307 307 306 306 306 306 306 305
313 315 315 315 317 321 324 325 323 322 321 319 317 317 317 317 317 317 318 318 322 327 329 329 330 329 328 327 328 328 327 327 326 325 324 322 321 320 320 320 319 317 316 316 317 317 316 316 315 315 314 313 313 312 312 312 312 311 311 311 310 310 310 310 310 309 309 309 308 308 308 308 308 307 307 307 307 307 306 306 305 305 305 305 305 305 304
314 315 315 316 319 322 324 324 323 322 319 318 318 317 317 319 318 318 318 317 322 329 330 330 329 328 327 327 328 328 327 326 325 324 323 322 321 319 319 319 318 318 318 318 318 317 316 315 315 314 314 313 313 312 312 311 311 310 310 310 310 309 310 310 309 309 309 308 308 308 308 307 307 307 307 307 306 306 306 305 305 304 303 302 302 302 301
313 314 315 316 317 319 322 325 325 323 320 319 319 317 317 319 319 319 318 317 323 329 329 328 328 327 326 327 327 327 327 326 325 323 322 322 321 319 319 319 320 319 319 318 317 316 316 315 314 314 313 313 313 312 311 311 310 310 310 309 309 309 309 309 308 308 308 308 307 307 307 307 307 307 306 306 306 305 305 305 305 304 302 300 298 298 298
314 314 315 315 315 318 322 324 324 324 323 322 319 316 316 318 318 320 318 318 324 329 328 328 328 327 326 327 327 327 327 326 325 323 322 322 320 319 320 320 320 319 318 317 317 316 315 314 314 314 313 313 312 311 310 310 310 309 309 308 308 308 308 307 307 307 307 307 306 306 306 306 306 306 306 305 305 305 305 305 304 304 303 301 299 297 296
314 315 315 314 316 320 324 324 323 324 325 323 319 316 316 316 318 319 318 319 325 329 329 328 327 326 326 327 326 327 327 325 324 322 322 321 321 320 320 320 319 318 317 316 316 315 314 314 313 313 312 312 311 309 309 308 308 308 307 307 307 307 306 306 306 306 306 306 306 306 305 305 305 305 305 305 305 305 305 304 304 304 304 303 302 299 296
314 314 314 314 317 321 323 322 322 325 325 323 318 316 319 322 321 319 318 321 326 329 328 327 326 327 328 328 327 326 326 324 322 322 321 321 320 320 319 318 318 317 316 316 315 314 314 313 313 312 311 310 309 308 308 307 307 306 305 304 304 304 305 304 304 304 305 305 305 305 305 305 305 305 305 305 305 305 304 304 304 304 303 303 303 302 299
314 314 314 314 317 321 322 322 322 324 323 321 319 320 323 326 324 321 320 322 327 329 328 326 326 327 329 328 327 326 325 323 322 321 320 320 319 319 318 317 317 317 316 315 314 313 313 312 311 310 309 308 308 307 305 304 303 302 302 302 302 303 304 304 304 304 304 304 304 304 305 305 305 304 304 304 304 304 304 304 304 304 303 303 303 302 302
313 314 314 314 316 320 323 322 322 323 323 321 322 325 325 325 326 324 321 323 328 329 328 326 327 327 327 327 326 324 323 322 321 319 319 319 318 317 317 316 316 316 316 314 313 313 312 311 310 309 307 307 306 305 304 303 302 302 303 303 304 304 304 304 304 304 304 304 304 304 304 304 304 304 304 304 304 304 304 304 303 303 303 303 303 302 302
313 313 314 316 317 320 322 322 322 323 323 323 325 327 325 325 327 326 323 325 328 328 327 327 327 327 326 326 324 323 321 321 320 319 319 318 317 317 316 315 315 315 314 314 313 312 311 310 309 308 307 306 306 305 305 304 304 305 305 305 305 305 304 304 304 304 304 304 304 304 304 304 304 304 304 304 304 304 304 304 303 303 303 303 303 302 302
314 315 317 320 321 322 323 324 325 325 324 323 324 326 326 326 326 326 326 327 327 327 326 326 326 326 325 325 323 322 320 320 319 318 318 317 316 316 316 315 315 314 314 313 312 311 310 309 308 307 306 306 305 305 305 305 305 305 305 305 305 304 304 304 304 304 304 304 304 304 304 304 304 304 304 303 303 303 303 303 303 303 303 303 303 302 302
317 319 320 322 323 324 324 324 324 324 324 323 324 325 325 325 325 325 326 326 326 325 325 325 325 325 324 323 322 320 319 318 318 317 317 316 316 315 315 314 314 314 313 312 310 309 308 307 307 306 305 305 304 304 304 304 304 304 304 304 304 304 304 304 304 304 304 304 303 303 303 303 303 303 303 303 303 302 302 302 302 302 303 303 303 302 301
317 318 319 321 323 325 325 323 322 323 323 323 324 325 325 325 325 325 325 324 325 325 324 323 324 324 324 322 321 319 318 317 317 316 316 316 315 314 314 314 313 313 311 310 309 308 307 306 306 305 304 304 303 304 304 304 304 304 304 304 304 304 303 303 303 303 303 302 302 303 302 302 302 302 303 303 303 303 302 302 302 302 302 302 302 302 301
318 318 320 323 323 324 324 323 323 323 323 322 323 324 324 324 324 324 324 324 324 324 323 323 323 323 323 321 320 319 317 316 315 314 314 314 314 313 313 313 312 311 310 309 308 307 306 306 305 304 304 304 303 303 304 304 304 304 304 303 303 303 303 303 303 302 302 302 302 303 302 302 301 300 300 301 301 302 303 302 302 302 302 301 300 301 301
318 318 320 322 321 321 322 322 323 323 323 323 323 323 323 324 323 323 324 324 324 323 322 322 322 322 322 321 319 318 317 316 314 314 314 314 313 313 312 312 311 310 309 308 307 306 305 305 304 304 303 303 303 303 303 303 303 303 303 303 303 303 303 302 302 302 302 302 302 302 301 300 299 298 297 297 297 298 299 299 299 299 299 298 297 297 297
317 318 320 320 320 320 321 322 322 322 322 323 323 323 323 323 322 322 323 323 323 322 322 322 322 322 321 320 319 318 316 315 314 314 315 314 313 312 312 311 310 309 308 307 306 305 305 304 304 303 303 303 303 303 303 303 303 303 303 303 303 302 302 302 302 302 302 301 300 299 298 296 295 295 294 294 294 294 295 295 294 295 295 294 294 294 293
318 320 320 321 322 322 322 322 322 321 321 322 323 322 322 322 321 321 322 322 322 322 321 321 322 321 320 319 318 317 316 315 315 315 314 313 312 312 312 311 310 308 307 306 305 305 304 304 303 303 303 303 303 303 303 303 303 303 303 303 302 302 302 302 302 302 301 300 298 297 296 294 294 294 293 294 294 294 294 294 293 293 293 293 293 293 293
320 320 320 320 322 322 321 321 321 320 321 322 322 321 321 321 321 321 321 322 321 321 321 321 321 321 320 319 318 317 316 315 315 314 313 313 313 312 311 310 309 307 306 306 305 304 304 304 303 303 303 303 302 302 302 302 302 302 302 302 302 302 302 302 302 302 301 299 298 297 297 296 295 295 294 294 294 293 293 293 293 293 293 293 293 293 293
319 318 319 320 320 320 320 319 319 320 320 320 320 321 321 321 321 320 320 320 321 320 320 320 321 320 319 318 317 316 315 315 314 314 313 313 312 311 310 309 308 307 306 306 305 304 304 304 303 303 303 302 302 302 302 302 302 302 302 302 302 302 301 301 301 301 300 299 299 298 298 298 297 297 296 295 294 293 293 293 292 292 292 292 293 293 293
318 318 318 318 319 319 319 319 319 319 319 319 320 320 320 320 320 320 319 319 320 320 320 320 319 319 318 317 316 315 314 314 314 313 312 312 311 311 310 308 308 307 306 305 305 304 304 304 303 303 303 303 302 302 302 302 302 303 303 303 302 301 301 301 301 300 300 300 300 300 300 300 299 299 298 297 296 295 295 295 294 293 292 292 292 292 292
317 317 318 319 319 318 318 319 318 318 318 318 318 319 318 318 319 319 319 319 318 319 319 318 317 317 317 316 315 315 314 314 314 313 312 312 311 310 309 308 307 307 306 305 305 304 304 303 303 303 303 303 302 302 302 302 303 303 303 302 301 301 301 301 300 300 301 301 301 301 301 301 301 300 299 299 299 299 299 299 298 297 295 294 294 293 292
316 316 317 319 319 318 317 317 317 317 317 318 318 317 317 317 318 318 318 318 317 317 317 316 315 315 315 315 315 315 314 314 313 313 312 311 311 310 308 308 307 306 306 305 304 303 303 303 303 303 303 303 302 302 302 302 303 303 302 302 301 300 301 301 300 300 301 301 301 301 301 300 300 300 300 300 300 300 300 300 299 299 298 297 297 297 295
315 315 316 317 317 316 316 316 316 317 317 317 317 316 316 316 316 316 316 315 316 315 315 314 314 314 315 315 314 314 313 313 313 312 312 311 310 309 308 307 306 306 305 305 304 303 303 303 303 303 303 303 302 302 302 303 303 302 302 301 300 300 301 301 301 301 301 301 301 300 300 300 300 299 299 299 300 300 300 300 300 300 300 299 300 300 299
314 315 315 315 315 315 315 316 316 315 315 316 316 316 316 316 315 315 314 313 313 313 313 313 313 313 314 314 313 313 312 311 311 310 310 309 308 308 307 307 306 306 305 304 304 303 303 303 303 303 303 303 303 302 302 302 302 301 300 300 300 301 301 301 301 301 301 301 300 300 299 299 300 300 300 300 300 300 299 299 299 300 300 300 300 300 300
314 314 314 314 314 315 315 314 315 314 314 315 315 315 315 315 314 314 312 312 312 313 313 313 312 313 313 312 312 311 310 309 309 308 307 307 307 306 306 306 305 305 305 304 304 304 303 304 303 303 302 303 303 302 302 302 302 301 300 300 301 301 301 300 301 301 301 300 299 299 300 300 300 300 299 299 299 299 299 299 300 300 300 300 300 300 299
314 314 314 313 314 314 313 313 313 313 313 314 314 314 314 314 313 312 311 311 312 312 312 312 312 312 311 311 310 309 309 309 308 307 306 306 306 306 305 305 304 304 304 304 304 304 304 304 303 303 302 302 302 302 302 302 302 301 300 300 301 300 299 300 300 300 299 298 299 300 301 300 300 299 299 299 300 300 300 300 300 300 300 301 301 300 299
314 313 313 313 313 313 312 312 312 312 312 312 313 313 312 312 312 312 311 311 311 311 311 311 310 310 310 310 309 309 309 308 308 307 307 307 305 304 304 304 303 303 303 304 304 304 304 304 303 303 302 302 302 302 302 302 302 301 301 300 300 299 298 299 299 298 298 299 300 300 300 300 299 299 299 300 300 300 300 300 300 300 300 301 301 301 300
313 313 313 312 312 312 312 311 311 311 311 311 311 311 311 311 311 310 311 311 311 310 310 310 309 309 309 309 309 309 309 309 308 307 307 306 305 304 303 303 303 303 303 304 304 304 304 304 303 303 302 302 302 302 302 302 302 301 300 300 299 298 298 299 299 298 298 299 300 300 300 300 300 300 300 300 300 300 300 300 300 300 300 300 301 301 301
311 311 311 310 311 311 311 311 311 310 310 310 309 310 310 309 309 309 310 310 310 310 309 309 309 309 309 309 310 310 309 308 308 307 306 305 304 303 303 303 304 304 304 304 304 304 304 303 303 303 303 302 302 302 302 302 301 300 300 299 298 298 299 299 299 299 299 300 300 300 300 300 300 301 300 300 300 300 300 299 299 299 299 299 300 301 300
310 310 310 310 310 311 311 311 310 310 310 309 309 309 308 308 308 309 309 309 309 309 309 308 308 308 308 309 311 310 308 308 307 306 305 305 304 303 303 303 304 304 304 304 304 304 303 303 303 302 302 303 302 302 302 301 301 301 300 298 298 298 299 299 300 300 300 300 300 300 300 300 300 300 300 300 300 301 300 300 300 300 300 300 300 300 300
309 310 309 309 310 310 310 310 310 309 309 309 308 308 308 307 308 308 308 308 308 308 308 308 307 307 308 310 310 309 308 308 307 306 305 305 304 303 303 304 304 304 304 303 303 303 303 303 302 302 302 302 302 301 301 301 301 301 300 299 299 299 299 299 300 300 300 300 301 300 300 300 300 300 299 299 300 300 300 301 301 300 300 300 300 299 300
309 309 309 309 310 310 310 309 309 308 308 308 307 307 307 307 307 307 307 307 308 308 307 307 307 307 308 309 309 307 307 308 307 306 305 304 303 303 304 304 304 304 303 303 303 303 303 303 302 302 302 302 301 301 301 301 301 301 300 300 300 300 300 300 300 301 301 301 301 301 300 300 300 300 300 299 300 300 300 300 300 300 300 300 300 299 299
309 309 309 309 309 309 309 309 308 308 308 308 307 307 307 307 306 306 306 306 307 307 307 306 306 307 308 308 307 307 307 307 307 306 305 304 303 303 304 304 304 303 303 303 303 303 303 303 302 301 302 302 301 301 301 300 300 301 301 301 301 301 301 301 301 301 301 301 301 301 301 300 300 300 300 301 300 301 301 300 300 300 299 299 299 300 300
309 308 308 309 309 309 308 308 308 308 308 308 307 306 306 306 306 306 306 306 305 305 306 306 306 306 307 307 307 307 307 306 306 306 304 303 303 303 304 304 303 303 303 303 303 303 303 303 302 301 301 302 301 301 300 300 300 301 301 301 302 301 301 301 301 301 301 301 301 300 300 300 300 300 300 300 300 301 301 301 300 300 300 300 300 300 300
309 308 308 308 308 308 308 308 307 307 307 307 307 306 306 305 306 307 307 306 305 304 305 306 306 306 306 307 307 307 306 306 306 305 304 303 303 303 303 303 303 303 303 302 302 303 302 301 301 301 301 301 301 300 300 300 300 301 301 301 302 302 301 301 301 301 301 301 301 300 300 300 300 300 300 300 300 300 300 301 301 301 301 301 301 301 300
309 308 308 308 308 308 308 308 307 306 306 306 306 306 305 305 305 306 307 306 305 304 305 305 306 306 306 307 307 307 306 306 305 304 303 302 302 303 303 303 303 303 302 302 302 302 301 300 300 301 301 301 301 300 299 299 300 301 301 301 302 302 302 301 301 301 301 301 301 301 301 301 301 301 301 300 300 300 300 301 301 301 301 301 301 301 301
309 308 308 307 307 307 308 307 307 306 306 306 306 305 305 305 304 304 305 305 305 304 304 305 305 305 305 306 307 306 306 305 304 303 302 302 302 303 303 303 303 302 302 301 301 300 299 299 301 301 301 300 301 300 298 298 299 300 301 302 301 301 301 301 301 301 302 301 301 302 302 301 301 301 301 301 301 301 301 301 301 301 301 301 301 301 301
308 308 308 307 307 307 307 307 307 306 306 305 305 305 305 305 304 304 305 305 305 304 304 304 304 305 304 305 306 306 306 305 303 302 303 303 303 302 303 303 303 302 302 301 300 299 299 300 301 301 300 300 301 299 297 298 299 300 301 301 301 301 301 301 301 301 302 302 302 302 302 302 302 301 301 301 301 301 301 301 301 301 301 301 301 301 301
308 308 308 307 307 307 307 307 307 306 306 305 305 304 305 304 304 304 305 305 304 304 304 304 304 304 304 305 305 306 305 304 303 303 303 303 303 303 303 303 302 301 300 299 298 299 299 301 301 300 300 300 300 299 298 299 300 300 301 301 301 301 301 301 301 302 302 302 302 302 302 302 302 302 301 301 301 301 301 301 301 301 301 301 301 301 301
308 308 308 307 307 306 306 307 306 306 306 305 305 304 304 304 303 304 304 304 304 304 304 304 304 304 305 305 305 305 304 303 303 303 303 303 302 302 302 302 301 299 298 298 299 299 299 300 300 300 300 300 299 299 299 300 300 301 301 301 301 301 301 301 301 301 301 301 301 301 301 301 302 302 302 301 301 301 301 301 300 300 300 300 300 300 300
307 307 307 307 307 306 306 306 306 305 305 305 305 304 304 303 303 304 304 304 304 305 305 304 304 304 305 305 305 304 304 304 303 303 302 302 302 302 302 301 300 298 297 299 300 300 299 299 300 299 300 300 299 298 299 300 300 301 301 301 301 301 301 301 301 301 300 300 299 300 300 300 301 301 301 301 301 300 300 300 300 300 300 300 300 299 299
307 307 307 307 306 306 306 306 306 306 305 305 305 305 304 304 303 304 304 304 304 305 306 305 304 304 304 304 303 304 304 304 303 303 302 302 302 302 302 301 299 298 298 299 300 300 300 300 300 299 299 298 298 299 299 300 301 301 301 301 301 301 301 301 300 300 299 299 299 299 299 299 300 300 300 300 300 300 300 300 300 300 300 300 300 299 299
307 307 307 306 306 306 306 306 306 306 305 305 305 305 305 304 304 304 304 304 304 305 305 305 305 305 304 303 303 303 303 303 303 302 302 302 302 302 301 301 300 299 299 299 300 300 300 300 300 299 299 298 298 299 300 300 300 301 301 300 301 300 300 300 300 300 300 299 299 299 299 299 300 300 299 299 299 300 299 299 300 300 299 299 299 299 299
307 307 306 306 306 306 306 306 306 306 305 305 304 305 305 304 304 304 304 304 304 304 305 305 305 304 303 303 303 302 302 302 302 302 301 301 302 302 301 301 299 299 299 299 300 300 300 300 299 299 299 299 299 299 300 300 300 300 300 299 299 299 299 299 299 300 300 300 300 299 300 300 299 299 299 299 299 299 299 299 299 299 299 299 299 299 299
306 306 306 306 306 306 306 306 306 306 305 305 304 304 304 304 304 304 304 304 303 303 303 304 304 303 303 302 302 302 301 302 302 302 302 302 302 302 302 301 300 299 299 299 300 300 300 300 299 299 299 299 299 300 300 300 300 300 300 299 299 299 299 299 299 299 299 299 299 299 299 299 299 299 299 300 300 300 300 299 299 299 299 299 299 299 299
306 306 306 306 306 306 306 306 306 306 305 305 304 304 304 304 303 304 304 303 302 302 303 303 303 303 302 302 301 301 301 301 301 302 302 302 302 302 302 301 301 300 299 299 300 300 300 300 299 299 299 299 299 300 299 299 299 300 300 300 299 299 299 299 299 299 299 300 300 299 299 299 299 299 299 300 300 300 300 299 299 299 300 299 299 299 299
Wind_Speed
15 15 15 16 17 17 17 17 17 19 20 20 17 13 13 12 10 8 9 13 13 10 10 11 11 11 12 14 14 15 18 21 22 24 24 21 21 24 27 27 27 26 25 27 28 26 26 26 23 18 15 14 14 15 15 13 13 12 12 12 12 11 10 9 8 8 8 9 10 10 10 9 9 10 10 10 9 8 8 8 9 9 9 9 9 8 9
14 16 16 16 16 16 17 17 17 17 17 18 17 15 15 14 12 10 8 10 11 10 11 10 11 13 14 16 18 18 20 23 24 23 23 22 21 23 26 26 25 25 27 29 27 24 24 24 21 18 16 14 13 15 15 15 15 14 14 14 13 11 10 10 9 9 9 11 11 11 10 9 9 10 9 9 8 8 9 8 9 9 9 9 9 9 10
11 14 13 12 13 15 16 17 18 17 16 17 17 15 14 14 13 12 10 8 7 6 9 11 14 16 15 16 18 19 20 23 24 24 25 25 23 23 25 27 26 27 28 28 25 24 24 23 20 19 18 15 14 15 15 16 16 15 15 16 14 11 11 11 10 9 9 10 10 10 9 9 9 9 8 8 8 8 9 9 9 8 9 9 9 9 10
9 11 10 11 13 14 16 17 19 19 17 16 15 13 13 13 14 13 10 8 6 6 9 12 14 15 15 16 17 18 20 22 25 26 26 26 25 25 27 29 32 33 32 28 25 25 24 22 20 19 18 16 16 16 16 16 16 15 16 17 15 13 13 12 11 10 10 10 10 9 10 9 9 9 9 8 8 8 9 9 9 8 9 9 9 9 9
9 11 12 12 10 12 13 13 16 19 18 16 14 14 15 15 14 11 9 8 7 10 11 11 13 14 14 15 18 20 20 22 25 26 26 27 28 27 28 34 36 33 29 26 23 22 20 19 18 17 16 17 18 18 17 16 16 16 16 16 15 15 14 12 11 11 11 11 10 10 10 9 9 9 9 9 9 8 8 9 9 9 9 9 9 9 9
9 12 12 10 9 10 6 4 8 13 15 17 17 15 16 16 13 10 9 9 7 11 13 12 12 14 14 16 19 20 21 23 24 26 28 29 29 29 33 38 34 28 26 25 22 21 19 18 18 18 16 17 19 19 18 17 17 17 17 16 16 16 15 13 12 11 12 11 11 11 10 10 9 9 9 9 9 9 9 9 9 9 9 9 9 9 10
7 9 10 9 9 7 2 3 1 3 7 14 16 16 17 17 16 14 13 11 7 7 9 11 12 14 15 16 17 19 23 25 25 27 30 30 32 36 38 35 29 27 28 27 24 24 22 20 19 18 17 18 20 20 19 18 17 17 17 17 17 16 15 14 12 12 12 12 11 11 11 10 10 10 10 10 9 9 9 10 10 10 10 10 10 10 10
6 7 9 8 5 4 3 2 1 2 4 9 12 15 17 18 17 16 14 11 8 6 7 11 13 14 16 15 16 19 23 23 26 30 30 29 34 40 37 31 28 30 30 28 25 25 23 20 18 18 18 19 20 20 18 17 17 17 17 17 16 16 15 14 13 12 12 12 12 11 11 11 11 11 11 11 11 10 11 11 12 11 11 11 11 11 11
6 7 9 6 4 5 4 2 2 5 8 9 9 9 11 12 13 14 14 13 11 10 10 13 15 16 15 13 13 19 22 23 27 30 29 30 37 39 33 29 29 29 28 26 25 23 21 19 18 18 19 19 19 19 18 17 17 17 17 17 16 16 15 14 14 14 13 13 13 12 12 12 11 11 11 11 11 10 11 12 13 13 14 15 15 14 14
6 6 8 7 6 6 4 3 4 6 7 10 11 9 7 10 13 15 15 14 13 12 12 17 19 16 12 8 12 20 24 25 28 28 28 34 38 37 32 30 28 27 26 25 23 22 21 19 18 19 19 19 19 18 17 17 17 17 17 16 16 16 16 15 15 14 14 14 13 12 12 12 11 11 11 11 11 11 11 11 11 12 14 17 19 18 17
5 5 7 8 5 2 3 4 6 7 6 8 10 9 9 12 17 19 18 14 13 14 17 20 19 13 8 6 13 23 27 28 29 30 31 34 35 33 32 31 29 27 26 25 23 22 20 19 19 19 19 19 18 17 17 18 18 18 18 17 17 17 17 16 15 15 14 14 14 13 13 12 12 12 11 11 11 11 11 11 11 11 12 14 16 18 18
7 7 7 5 2 3 5 5 5 7 8 9 10 10 8 10 18 21 19 15 16 18 22 21 16 10 6 7 18 27 27 27 30 32 32 33 33 33 32 30 29 28 27 26 24 21 20 19 19 19 20 20 20 20 20 20 19 19 19 19 19 19 18 18 17 16 15 14 14 14 14 13 13 12 11 11 11 10 10 11 11 11 12 12 13 16 17
8 8 7 4 2 4 6 6 7 7 8 8 10 7 2 2 13 20 20 18 20 23 23 19 13 7 2 11 26 31 26 26 30 31 32 32 31 31 30 29 29 29 28 26 23 20 19 19 19 19 20 22 23 22 20 18 17 17 18 19 19 18 18 18 17 17 17 15 15 15 14 13 13 12 12 11 11 11 11 11 11 11 11 11 12 13 14
7 6 7 6 3 3 4 6 8 9 8 6 5 2 6 7 6 18 21 19 20 23 22 17 12 6 9 21 33 33 30 32 32 32 35 35 31 30 30 29 30 30 28 25 22 21 20 19 19 19 20 21 21 20 18 18 17 17 17 17 17 17 18 18 17 18 17 16 15 15 13 13 13 13 13 12 12 12 12 12 12 11 11 11 11 11 12
6 6 8 7 3 5 10 10 7 5 5 1 2 1 3 5 4 12 18 19 19 21 19 15 11 11 18 27 32 33 34 36 32 31 35 34 30 30 30 29 30 31 29 25 23 22 21 20 20 20 21 22 21 20 20 19 19 19 18 17 18 18 18 18 17 17 16 15 15 14 13 13 13 13 13 12 12 12 11 11 11 11 10 10 10 11 11
7 6 6 4 1 6 11 8 3 3 5 5 5 3 3 2 2 7 12 17 19 18 16 14 13 17 23 29 32 33 34 33 31 31 33 31 29 31 30 29 30 30 28 25 23 22 21 20 20 20 21 22 22 21 21 21 20 20 19 19 19 19 18 18 17 17 16 15 14 14 13 13 13 12 12 11 11 10 10 9 9 9 9 10 10 11 11
3 2 3 3 5 8 8 3 4 7 8 7 6 5 5 3 2 5 8 13 16 16 14 14 17 22 27 30 32 32 32 32 32 33 33 32 32 33 33 31 30 28 27 26 25 23 22 21 20 20 20 22 23 23 22 21 21 21 20 21 21 20 19 18 17 16 16 15 14 13 13 12 12 12 11 11 10 10 10 9 9 9 9 9 10 10 11
2 4 6 6 7 8 7 5 6 5 5 4 4 6 5 3 3 4 7 10 14 16 15 14 18 24 29 31 31 32 32 33 34 34 34 34 34 34 34 32 30 28 27 27 26 25 23 21 21 20 20 22 23 23 22 21 21 21 22 22 21 20 19 18 17 16 16 14 14 13 12 11 11 11 11 11 10 10 10 9 9 9 9 9 10 10 10
3 2 3 5 7 7 6 5 5 4 4 3 2 4 5 3 3 4 6 10 14 15 15 15 18 24 29 31 32 32 32 33 35 36 36 36 35 35 34 32 31 29 28 27 26 26 24 21 21 21 21 21 22 23 22 21 21 22 22 22 22 20 19 18 17 16 16 15 14 13 12 11 11 10 9 10 10 10 10 10 9 9 10 10 10 9 9
2 2 3 5 6 6 4 3 3 3 4 4 3 3 4 3 5 5 6 10 15 16 16 17 20 24 28 31 32 32 32 33 35 37 40 39 36 34 33 32 30 28 27 27 27 26 24 22 22 22 21 21 22 22 22 21 22 22 22 22 21 20 18 17 17 16 16 15 14 12 12 13 13 12 10 9 11 14 14 13 12 11 10 10 10 9 7
2 3 3 2 4 5 6 5 3 4 5 5 4 4 2 3 5 6 6 10 15 16 17 19 21 24 28 29 30 32 34 34 37 41 44 42 36 33 32 30 28 27 27 27 27 26 25 23 22 22 22 22 22 22 22 22 22 22 22 21 20 18 17 17 17 15 14 13 12 11 13 15 16 16 15 13 14 15 15 15 15 12 10 11 11 9 8
3 3 1 2 1 2 5 7 5 3 4 5 5 5 3 3 4 6 8 11 14 15 17 20 21 24 28 29 29 31 33 36 41 45 45 41 35 32 31 29 27 27 28 28 27 26 25 24 23 23 23 22 22 22 21 21 22 22 22 20 19 18 17 16 16 15 13 13 13 13 14 16 17 18 18 17 17 17 16 15 14 13 11 12 13 12 11
2 3 2 3 4 4 5 7 6 4 5 6 6 5 4 4 5 6 9 12 14 15 17 19 21 24 27 28 30 31 32 36 43 45 41 37 34 32 30 28 28 28 28 27 27 26 25 24 23 23 23 22 22 22 21 21 22 21 21 19 18 17 16 16 15 15 14 14 15 15 16 18 18 19 19 18 17 17 16 15 14 13 13 13 13 12 12
4 4 4 3 3 5 5 6 6 5 5 5 4 4 4 5 6 7 10 13 14 16 18 18 20 24 27 28 30 32 34 39 44 42 37 34 33 32 30 29 30 30 29 28 27 26 25 25 24 24 23 22 22 21 21 21 21 20 18 18 17 16 16 16 16 15 15 16 16 16 17 17 17 17 17 17 16 15 14 13 13 12 12 12 11 12 12
3 3 3 4 6 7 7 6 6 5 4 4 4 5 4 5 7 9 10 12 14 16 18 18 19 23 27 28 30 33 37 43 46 42 37 35 33 31 31 31 31 31 29 28 27 26 26 25 25 24 23 22 21 21 21 20 20 18 17 16 16 16 17 17 16 16 16 16 16 16 16 15 14 14 14 14 15 15 13 12 12 12 11 11 10 11 11
2 3 4 6 7 7 6 7 6 5 4 4 5 6 5 6 9 10 11 13 14 15 17 18 19 22 26 28 31 34 40 45 45 40 37 35 32 31 32 32 31 30 28 27 27 26 26 26 25 24 22 22 21 21 21 20 18 17 16 16 16 17 17 16 16 16 16 16 15 14 14 13 12 12 12 12 12 12 11 10 10 11 11 11 11 10 10
3 4 3 4 5 5 4 5 5 6 6 6 7 7 6 8 10 11 12 14 15 15 17 19 21 23 27 30 32 35 41 45 42 37 35 34 32 31 32 32 30 29 28 27 27 27 27 26 24 23 22 21 21 20 20 19 17 17 16 16 16 18 18 17 16 16 16 15 14 13 12 12 12 11 11 10 9 7 7 7 7 7 8 10 12 12 11
2 2 3 4 5 6 5 6 7 8 6 6 8 8 8 10 12 12 13 15 16 16 18 20 21 26 32 35 34 35 38 40 37 34 33 32 31 31 31 31 31 29 28 27 27 28 27 25 23 23 22 21 20 20 19 18 17 17 16 16 17 19 18 17 15 15 15 14 13 12 12 12 11 10 10 9 8 7 7 6 6 6 4 3 8 12 11
2 2 3 6 7 8 6 6 7 7 6 7 9 9 10 12 13 13 15 17 18 20 21 20 22 28 34 37 36 37 38 37 35 34 33 31 31 31 32 31 30 28 27 27 27 27 25 24 23 22 22 21 20 19 18 18 17 16 16 17 19 18 16 15 15 15 14 13 13 14 14 12 11 10 10 9 8 7 6 6 5 4 4 2 5 8 9
3 3 4 5 6 6 6 5 6 6 6 8 9 9 10 12 13 13 15 17 19 22 23 22 24 30 37 39 39 39 40 38 36 37 36 33 31 31 31 31 30 28 27 27 26 25 24 23 22 22 22 20 19 19 18 17 16 16 16 18 18 17 16 16 16 15 14 13 15 15 14 11 10 10 9 8 7 7 6 5 5 3 3 2 2 3 5
5 5 5 4 4 4 4 4 5 5 6 7 8 10 10 12 13 13 14 16 19 22 22 22 25 32 38 40 40 41 41 38 35 36 37 36 34 33 31 31 30 29 27 26 25 24 23 22 21 21 21 20 19 19 18 17 16 16 17 17 17 18 19 18 16 13 13 15 15 14 11 9 9 9 9 8 7 6 5 5 4 2 2 1 1 1 0
5 3 2 2 1 1 3 3 4 5 6 6 8 10 10 11 12 13 14 16 19 20 21 23 29 35 39 40 40 41 41 39 36 34 35 35 35 33 29 26 26 28 27 26 24 23 22 20 20 20 20 19 19 18 18 17 16 17 17 17 17 20 21 19 14 13 15 16 14 11 10 9 9 9 8 7 6 5 5 4 3 2 2 1 1 2 2
2 2 1 1 1 0 2 3 3 5 6 6 7 8 9 10 11 13 15 18 19 21 24 25 29 35 39 40 40 41 40 39 37 34 31 31 32 31 28 25 24 26 26 24 22 21 20 19 19 20 19 19 19 18 18 17 16 16 16 17 18 21 21 17 14 14 16 14 11 10 10 9 9 9 8 6 5 5 4 4 3 2 2 2 2 4 6
4 5 4 2 2 2 2 3 4 5 6 6 7 7 8 9 10 12 16 19 20 23 26 24 24 31 38 40 38 38 38 37 37 34 31 30 31 31 29 26 24 23 22 21 20 19 18 18 19 19 19 19 19 18 17 16 15 15 16 17 20 21 18 15 14 15 14 11 10 10 10 9 9 8 6 6 6 5 4 4 3 3 4 3 3 6 10
3 4 3 2 3 2 2 4 5 6 7 7 7 7 8 9 11 13 17 20 22 23 24 21 21 28 37 39 36 35 36 36 36 34 33 32 32 30 29 26 22 20 20 20 18 18 18 18 19 19 19 19 19 18 18 16 16 16 16 18 20 19 16 15 15 14 12 11 10 10 9 8 8 7 6 6 6 5 5 5 5 4 5 5 4 6 10
1 2 2 2 2 2 4 4 4 5 7 7 7 8 7 8 11 13 15 17 17 18 19 18 18 24 33 37 36 36 36 36 35 35 34 33 31 30 27 24 21 21 21 20 18 18 18 20 20 20 19 19 19 19 18 16 16 16 17 18 18 17 15 15 14 12 11 10 10 9 9 9 8 7 7 7 6 6 6 6 6 5 6 6 6 6 8
1 2 2 2 3 5 5 5 5 5 6 6 7 7 7 8 10 13 15 16 15 17 21 20 17 21 30 36 37 37 36 34 33 34 34 32 31 29 26 22 21 23 23 21 19 19 19 21 21 21 19 18 18 19 19 18 17 16 17 17 17 16 15 14 12 11 11 10 9 9 9 9 8 8 8 7 7 7 7 7 7 6 7 7 7 7 8
2 3 3 4 5 6 6 6 6 6 6 7 7 7 8 8 9 12 15 17 16 17 21 22 21 25 33 38 38 37 35 33 33 34 34 33 32 29 25 22 23 24 22 20 19 20 20 22 22 21 19 17 18 20 21 21 19 17 16 16 16 15 14 14 12 11 11 10 9 9 9 9 9 9 9 8 8 8 8 7 7 7 7 7 8 8 8
3 4 5 5 6 6 6 6 6 6 6 7 8 8 9 10 9 10 14 16 15 15 17 22 27 31 35 38 38 37 34 33 35 36 35 35 33 29 24 22 22 21 20 19 19 20 22 23 22 21 19 17 18 21 23 23 20 17 16 15 14 14 13 12 11 11 10 10 10 10 9 9 9 9 9 9 9 8 9 9 9 8 8 8 9 9 9
4 4 5 6 6 6 6 6 6 6 6 6 7 9 10 10 10 11 13 15 16 15 17 22 28 31 33 35 37 35 32 32 34 35 35 35 33 27 23 21 20 19 18 18 19 20 21 22 21 20 19 18 18 21 25 24 20 16 14 14 13 12 12 11 11 10 10 10 10 10 9 9 9 9 9 9 9 9 9 9 10 10 9 9 9 9 9
6 5 5 5 5 6 6 6 6 7 7 7 7 8 9 10 10 11 13 15 16 17 19 22 25 28 31 33 33 32 31 32 33 33 35 35 32 27 22 19 19 18 18 19 19 18 19 20 20 20 19 18 19 22 27 27 19 13 13 14 12 11 11 11 10 10 10 9 10 10 10 9 10 10 10 10 10 10 10 10 10 10 10 10 10 10 10
7 5 5 5 5 5 6 6 6 7 8 9 8 8 9 10 9 10 13 16 15 15 19 22 23 25 28 31 31 32 32 31 31 33 35 34 30 25 21 19 19 19 19 21 21 19 18 20 21 19 19 19 19 22 27 27 19 11 10 12 12 10 11 10 10 10 9 9 9 10 9 9 10 10 10 10 10 10 11 11 11 11 11 11 11 11 11
7 6 5 5 5 5 5 5 5 6 8 9 9 9 9 9 9 11 15 17 16 15 17 22 24 25 27 30 32 32 31 30 31 32 32 29 26 22 19 18 19 19 20 21 21 19 19 21 21 18 19 21 19 20 25 26 19 11 9 11 11 10 10 9 9 9 9 9 9 10 10 10 10 10 10 11 11 11 11 11 11 12 12 11 12 12 12
8 8 6 5 5 5 4 5 6 7 8 9 10 10 9 8 9 11 14 17 17 16 18 21 25 25 25 28 31 32 31 33 34 32 28 25 23 19 16 17 19 19 19 20 19 19 21 21 19 18 21 21 18 18 22 22 18 13 11 10 10 10 10 9 9 9 10 10 10 10 10 10 10 11 11 11 11 12 12 12 12 12 12 12 12 12 13
8 8 7 6 5 4 4 6 7 8 8 9 10 11 10 9 9 10 12 15 17 18 19 22 23 23 23 25 27 29 31 35 36 31 27 25 23 19 18 20 20 18 18 19 19 20 22 20 17 19 22 19 15 17 20 19 15 13 12 11 10 10 10 10 10 10 10 10 10 10 10 10 10 11 11 12 12 13 13 13 13 13 13 13 13 13 14
7 7 7 7 6 5 5 6 6 6 8 11 11 10 9 9 10 10 11 12 14 18 21 23 22 22 23 23 24 25 28 30 29 26 24 22 20 19 20 21 21 19 20 20 18 19 21 20 17 19 21 18 15 17 18 15 13 12 12 11 11 11 11 10 10 11 11 11 11 12 12 11 11 11 11 12 12 12 13 13 13 13 14 15 15 15 15
6 7 8 8 8 7 7 7 7 7 8 10 11 11 10 9 11 14 15 13 11 15 21 22 21 21 22 23 24 26 28 27 25 24 21 18 17 18 19 19 19 20 23 21 17 17 20 20 18 18 20 20 18 17 16 14 13 12 12 11 11 11 11 11 11 11 11 12 12 13 13 13 14 13 13 13 13 13 13 14 14 15 15 16 16 16 17
7 7 8 9 10 10 8 7 7 8 7 8 10 12 12 11 12 16 18 16 12 13 18 21 22 22 22 21 21 24 26 26 26 25 22 19 17 17 17 17 18 20 22 20 16 15 17 19 19 18 18 20 19 17 14 14 13 12 11 11 11 11 12 12 11 11 11 11 12 12 13 13 14 14 14 15 15 15 15 15 15 15 16 16 16 17 17
7 8 8 9 10 11 9 7 7 8 8 7 9 12 14 14 13 14 16 17 16 15 16 18 19 20 20 19 19 21 23 24 23 23 23 20 17 15 15 17 18 20 20 19 16 13 13 16 18 18 18 19 19 17 15 14 13 12 12 12 12 12 12 12 11 11 11 10 11 11 11 12 12 12 13 13 13 14 14 14 15 15 16 17 17 18 19
8 8 9 9 9 10 9 8 7 8 9 8 9 11 14 15 14 14 16 19 20 18 16 16 17 18 20 22 22 23 23 22 19 19 20 19 16 14 15 17 19 20 21 18 16 15 15 15 16 17 18 19 18 17 15 15 14 13 13 13 12 12 12 12 12 12 12 11 11 11 11 11 12 12 13 13 14 14 15 15 16 17 18 19 20 20 21
8 8 8 8 8 9 10 8 7 7 8 9 10 12 14 15 16 16 17 18 19 18 17 18 20 21 23 26 26 25 24 22 20 20 20 18 15 14 15 16 18 21 22 19 17 17 18 18 17 18 19 19 18 16 16 15 13 12 12 12 12 12 12 12 12 12 13 13 13 13 13 14 14 14 14 14 15 15 16 16 17 18 18 19 19 19 19
8 7 8 8 8 9 10 8 7 7 8 8 10 12 13 13 15 18 19 19 18 17 17 20 22 22 23 25 27 27 26 25 24 22 21 19 17 16 15 15 16 19 21 20 18 16 16 17 19 21 21 19 17 16 15 15 14 13 12 12 12 12 12 12 12 12 12 13 13 14 14 15 15 15 15 15 16 16 17 17 18 18 18 18 19 19 19
Wind_Direction
210 197 190 197 199 201 207 206 206 206 203 208 215 215 216 215 217 223 212 207 199 171 164 173 165 168 170 151 139 142 142 141 143 145 146 148 148 150 153 153 151 147 142 144 147 147 144 142 141 138 138 144 147 143 135 126 126 128 127 129 132 129 127 125 120 118 121 126 123 116 112 106 101 100 95 89 85 82 80 75 71 70 66 64 58 47 49
213 208 201 200 197 199 205 205 206 208 206 207 208 214 220 212 213 234 236 221 209 174 159 162 150 151 155 143 142 150 150 147 148 151 154 152 150 150 150 149 148 145 143 143 142 139 138 138 138 136 139 145 144 134 126 121 121 127 132 133 133 133 130 126 122 120 122 121 117 112 108 100 97 96 91 87 83 81 81 77 73 71 68 67 61 50 48
217 216 200 189 200 208 206 204 206 206 206 208 204 206 216 212 211 228 237 226 210 166 142 140 133 138 146 146 151 156 155 156 157 157 156 152 149 148 146 145 143 139 136 134 134 136 139 138 139 141 143 145 139 129 123 123 126 131 134 135 139 142 133 124 121 117 115 113 109 105 101 95 93 91 88 88 85 83 81 77 76 73 67 66 61 52 47
208 208 197 191 204 214 212 208 206 203 205 209 203 199 204 206 209 215 213 207 186 130 123 132 136 145 151 154 160 160 159 163 162 157 153 149 147 146 144 142 138 134 133 134 137 141 142 143 144 144 144 141 135 131 128 128 131 134 134 136 140 138 126 121 119 114 110 109 106 102 99 96 94 91 90 90 88 85 81 77 76 73 67 65 62 55 46
196 192 203 208 205 212 217 214 207 204 204 205 204 203 200 202 210 208 202 208 177 139 143 152 152 157 159 159 164 165 166 165 160 155 151 147 144 143 142 141 138 134 135 140 144 144 143 144 143 140 140 136 131 131 132 132 134 135 134 134 132 128 124 123 120 113 111 110 106 103 101 98 96 94 92 92 88 85 83 79 75 72 69 67 64 58 48
196 185 197 208 207 210 210 211 216 213 209 205 204 205 200 200 208 207 209 224 192 153 166 176 165 161 159 159 165 170 169 163 157 155 152 145 142 142 143 145 142 139 140 142 140 137 137 138 135 132 134 133 129 131 133 135 136 135 135 133 129 126 125 122 118 113 112 110 106 106 104 100 98 96 93 92 89 86 85 80 73 70 68 66 65 62 53
191 171 187 205 211 208 134 66 262 234 225 217 209 207 205 200 204 210 213 214 194 166 173 170 158 153 150 155 165 168 166 163 160 157 150 144 146 148 148 147 145 143 144 142 137 136 138 139 135 132 133 132 130 131 134 136 136 135 134 129 124 123 121 119 119 117 114 112 110 109 108 103 101 98 95 95 94 90 87 84 80 77 73 70 68 64 56
170 160 197 209 187 148 116 87 78 118 214 221 213 211 207 199 198 205 210 204 184 163 145 136 139 145 145 151 160 161 162 164 162 157 149 148 153 153 149 147 148 148 146 143 141 141 141 139 136 134 134 133 132 133 136 137 136 133 131 126 123 122 120 120 122 119 117 116 113 111 109 106 103 101 98 96 94 93 93 91 89 86 81 80 77 72 65
185 182 201 196 156 161 170 167 184 194 204 204 208 216 207 197 198 200 206 204 179 150 134 131 134 140 142 146 156 161 165 165 159 156 154 154 155 153 149 148 149 148 145 144 142 141 140 139 137 137 137 135 134 136 138 137 134 131 128 125 123 120 119 120 121 120 119 118 115 113 111 108 106 104 102 100 98 97 95 91 86 82 81 83 85 84 79
217 211 202 202 208 201 180 143 161 198 218 202 201 216 214 205 207 206 207 202 173 149 141 138 137 141 149 158 163 166 168 165 158 155 154 154 155 154 151 147 146 147 146 145 142 140 140 140 140 140 141 139 139 139 138 135 132 128 126 124 123 121 120 120 120 120 120 117 116 114 112 110 110 107 106 106 103 100 96 92 90 86 81 80 81 81 78
219 227 211 209 219 190 140 137 147 169 200 188 186 210 219 203 201 206 211 199 170 156 154 147 146 157 173 172 170 171 170 164 158 154 151 152 154 154 151 148 148 148 146 143 142 143 142 141 141 143 143 141 141 138 136 135 132 128 126 123 121 121 121 121 121 120 119 118 118 116 114 112 112 111 110 108 103 100 97 95 95 92 85 79 75 72 71
209 219 220 213 201 116 131 135 138 158 174 171 178 202 214 191 188 198 206 196 172 165 161 155 160 185 200 167 167 170 165 157 154 153 152 152 151 150 149 149 148 146 144 144 145 144 143 142 143 144 145 149 152 149 147 149 148 144 140 137 136 134 130 127 125 122 120 120 118 116 116 115 115 114 115 112 108 106 103 99 97 93 89 84 75 68 66
207 215 227 214 138 109 129 136 133 145 160 175 189 202 277 207 186 191 199 192 176 171 169 166 175 201 185 145 156 161 159 154 153 153 152 150 148 148 148 147 146 145 144 144 145 144 144 145 146 147 151 158 162 159 156 157 156 153 153 153 152 143 130 124 122 121 121 121 118 117 119 119 117 115 113 110 108 108 106 103 99 94 88 83 75 66 58
210 213 228 224 175 135 158 152 138 150 170 180 183 215 335 325 213 191 193 188 176 172 173 173 176 161 121 137 149 155 155 153 150 150 152 151 148 149 149 147 146 148 147 145 145 145 146 147 148 149 151 153 153 151 151 151 149 147 148 147 139 127 119 117 116 116 118 120 119 119 119 118 115 112 110 108 105 103 102 100 98 95 90 84 78 71 60
216 211 217 229 217 154 167 163 147 171 194 133 40 356 333 330 244 196 187 179 175 174 172 171 166 145 137 141 144 147 150 149 148 152 155 153 149 148 149 147 147 150 150 146 145 145 146 148 148 147 146 144 142 142 144 143 140 138 135 130 125 122 120 119 116 116 119 119 117 116 115 114 112 109 107 105 103 102 101 99 95 91 87 82 76 72 67
215 217 206 217 92 137 164 170 138 125 125 77 29 12 47 52 225 200 178 169 172 176 172 165 152 142 144 146 144 145 149 149 150 154 154 151 148 148 148 148 148 149 148 146 145 146 148 149 147 145 145 143 139 137 138 138 135 133 131 129 129 126 122 119 119 121 122 119 116 115 113 112 110 108 107 104 103 103 101 100 97 91 86 82 76 69 65
204 153 121 103 97 124 145 131 70 101 116 93 52 42 54 70 158 182 172 167 170 172 167 156 144 140 147 151 150 151 151 149 149 152 151 150 150 150 149 150 148 146 147 148 148 147 147 146 143 143 148 148 142 138 138 137 136 136 136 134 130 126 123 124 126 126 122 118 116 113 110 108 106 105 105 105 105 103 101 98 95 89 83 79 74 69 65
135 112 108 109 115 126 128 99 78 100 131 117 68 61 66 82 137 170 178 174 173 173 168 159 151 148 150 154 154 152 150 149 149 149 150 152 152 150 148 147 146 147 148 147 145 143 142 141 140 142 149 151 145 139 138 139 139 139 138 134 129 127 128 128 127 126 122 119 116 112 109 109 108 106 106 103 99 96 94 92 90 88 84 78 72 68 64
197 176 127 110 118 134 141 127 104 101 122 131 78 60 74 104 142 168 183 180 179 179 171 163 161 156 153 154 155 152 150 152 153 151 151 152 152 150 147 145 145 148 148 144 142 140 138 139 140 141 144 147 144 139 138 139 141 139 136 133 130 130 130 127 126 126 122 117 114 110 106 104 102 102 105 110 113 110 102 94 86 81 78 75 72 69 64
203 186 137 109 114 131 148 145 119 102 109 113 99 74 78 109 132 152 184 175 166 169 169 164 164 162 156 156 158 157 155 155 155 153 152 151 150 147 146 145 146 147 146 144 142 140 138 140 142 141 141 143 141 140 140 141 141 139 136 134 132 131 130 128 127 125 121 118 115 115 119 122 117 108 106 122 138 138 131 123 111 94 81 76 72 69 73
162 163 153 126 136 156 171 171 125 79 90 100 94 93 105 124 128 142 167 157 151 161 172 171 167 165 162 161 162 162 159 156 155 155 156 154 149 144 144 146 147 147 146 144 142 140 140 142 142 141 141 142 141 140 142 143 143 140 137 134 133 132 130 129 128 125 123 121 122 129 141 146 137 124 116 119 129 131 129 126 119 109 104 101 91 84 91
169 149 122 313 279 153 158 169 158 105 95 103 98 101 121 139 142 156 165 160 158 167 174 174 170 165 164 166 166 164 160 156 155 158 157 152 147 144 145 147 147 146 145 143 141 140 141 142 142 142 141 141 141 142 143 144 144 141 137 135 134 133 132 131 130 127 125 124 123 128 138 141 133 123 117 114 114 114 112 109 106 103 103 103 97 93 93
89 91 68 328 328 38 99 146 158 134 110 110 114 124 139 149 159 168 168 168 170 170 171 176 175 167 165 167 166 162 158 154 155 157 154 148 146 147 147 147 146 145 144 142 141 141 142 142 143 141 140 140 142 143 144 146 145 141 138 136 136 135 135 135 133 131 129 127 124 122 125 125 121 117 114 110 107 105 103 101 100 99 96 93 92 92 90
47 51 58 47 44 74 110 147 156 144 130 125 137 154 158 157 164 170 168 168 170 169 170 178 176 165 162 166 166 160 155 152 153 153 150 147 148 148 147 148 148 145 144 144 143 143 144 144 142 141 140 141 142 142 144 145 143 140 138 138 138 139 139 137 136 134 133 131 128 125 122 120 117 114 111 108 104 101 99 98 96 94 91 89 86 83 80
48 47 59 85 93 102 126 141 140 138 133 131 146 153 151 156 162 164 163 163 164 164 166 172 171 160 158 165 165 158 154 155 156 154 150 149 150 149 149 150 149 147 146 146 145 145 146 144 143 141 140 141 142 143 144 143 141 140 141 141 140 141 141 139 138 138 137 134 132 131 128 125 121 116 111 108 105 99 93 90 88 85 83 83 79 76 76
74 104 109 110 105 110 124 126 129 138 129 129 148 145 131 141 154 159 162 161 162 164 163 163 162 158 159 165 166 159 156 158 157 153 150 151 151 151 151 151 149 147 147 146 146 147 147 144 143 141 141 142 144 143 143 142 141 141 142 142 143 143 142 141 141 141 139 138 136 135 134 132 129 125 122 119 112 100 89 82 79 76 73 69 65 65 68
124 127 120 110 121 138 122 102 126 149 140 135 146 145 139 145 148 149 153 156 159 162 155 149 153 158 161 164 165 161 159 158 156 152 151 152 152 152 152 150 147 146 146 146 147 148 146 144 143 141 142 143 144 144 143 143 142 141 142 144 146 145 142 141 142 142 141 140 140 139 138 136 135 135 134 133 131 124 115 108 99 91 78 61 49 45 49
109 70 26 45 100 132 114 96 122 141 143 143 145 141 142 147 146 145 148 151 155 158 152 147 154 163 164 162 160 159 157 155 153 153 153 151 152 152 150 147 146 146 145 146 147 146 145 144 144 143 143 144 144 144 144 143 142 143 144 146 148 146 142 141 143 143 141 139 138 137 138 138 137 137 138 139 140 137 136 135 131 130 126 60 23 24 35
81 74 53 57 85 115 128 131 130 129 136 149 149 145 147 151 152 152 151 149 150 152 152 156 166 171 167 161 156 154 153 152 154 156 154 150 149 149 147 145 144 144 145 146 146 146 145 145 144 144 144 143 143 144 144 144 144 146 148 149 149 147 145 145 146 143 138 139 144 144 140 136 135 136 135 137 141 140 139 143 142 141 155 215 325 350 6
93 99 101 91 96 113 132 144 138 134 143 152 154 158 160 158 158 159 157 157 160 161 162 166 171 171 167 162 157 154 153 152 152 151 149 146 144 144 144 144 143 142 144 146 146 147 147 146 146 146 145 144 144 145 145 144 145 147 149 150 150 150 149 147 145 142 141 148 155 151 141 134 137 141 140 139 141 142 140 144 148 148 146 170 267 318 340
106 94 99 112 125 128 129 136 146 151 155 158 163 166 165 163 165 162 157 164 174 178 177 176 172 168 165 162 158 156 156 154 151 148 147 146 144 143 144 145 144 144 146 147 147 148 147 146 146 147 147 146 147 147 147 146 146 147 149 150 154 158 154 147 144 147 151 153 152 147 142 142 146 146 145 145 147 147 146 146 153 170 175 171 201 237 326
112 101 107 122 122 116 124 139 154 154 154 162 167 166 167 170 169 164 163 170 178 180 180 176 172 169 165 161 160 161 160 159 159 157 154 153 151 149 145 145 146 146 146 145 147 148 147 146 147 148 149 150 149 150 151 149 147 150 151 151 156 159 153 145 145 151 151 148 147 147 150 153 152 150 151 153 154 158 164 167 173 189 203 226 252 227 223
59 24 63 114 88 124 158 167 170 161 161 164 161 163 172 174 166 166 176 181 180 178 176 172 170 169 168 165 164 165 164 164 165 165 161 158 158 156 151 147 148 148 146 144 147 148 147 148 150 151 152 153 153 154 154 152 151 153 153 152 156 157 152 147 151 153 150 148 152 156 156 154 155 159 162 165 168 171 175 187 201 216 234 264 268 240 249
21 13 22 38 320 287 217 191 178 160 156 155 154 161 170 166 161 171 182 182 178 178 176 170 165 169 171 170 167 166 165 165 166 166 162 160 161 162 158 151 146 146 147 147 149 151 153 154 155 155 156 157 157 156 156 155 154 154 153 154 157 157 153 151 155 155 154 156 161 162 161 162 165 170 174 179 184 191 199 208 221 240 252 263 270 263 268
37 25 28 359 325 316 178 172 172 164 159 157 157 158 156 155 165 179 184 181 178 177 173 164 161 168 172 171 170 169 169 168 168 166 164 164 164 162 159 153 147 148 153 155 156 158 160 161 160 159 158 159 159 157 157 157 155 153 153 156 158 157 153 154 157 160 163 166 167 168 171 173 177 183 188 190 197 209 219 223 233 251 257 258 264 271 276
38 16 15 9 11 118 145 149 153 162 167 165 161 154 150 161 177 179 172 169 170 168 163 158 158 164 169 171 172 173 173 173 173 170 168 168 166 161 156 154 155 157 159 162 164 166 166 166 166 164 162 161 161 160 158 156 155 154 155 157 158 158 158 159 162 166 171 172 172 177 180 183 188 195 198 203 213 224 228 232 241 250 255 260 265 266 273
63 41 35 58 102 124 130 128 131 144 153 157 157 151 147 164 182 179 169 166 166 163 163 164 163 165 170 173 174 173 173 175 175 172 169 168 167 161 156 159 164 164 163 166 169 171 173 174 173 168 164 164 165 163 159 156 156 157 157 157 158 162 164 166 168 173 176 177 180 184 188 195 203 208 209 215 224 230 233 240 248 252 255 261 265 263 266
87 69 67 98 119 121 120 121 124 127 130 136 141 142 141 149 164 174 179 182 182 176 175 175 172 170 172 174 174 174 174 175 176 174 170 168 166 162 161 165 168 167 167 170 170 173 180 182 177 170 168 169 170 166 162 160 160 160 159 159 162 166 170 173 177 180 182 186 190 192 197 205 209 213 217 222 226 232 237 240 246 255 261 263 265 267 266
113 96 97 111 118 116 116 118 118 121 127 129 129 132 136 139 145 160 176 185 187 184 182 178 173 171 172 173 174 175 175 175 176 174 170 167 166 163 163 168 170 168 169 171 173 180 189 189 181 174 174 174 173 171 167 162 161 162 163 164 168 172 174 178 183 185 188 193 196 198 204 210 211 216 224 227 228 234 239 242 249 258 262 263 265 266 267
135 118 113 118 119 114 114 116 118 122 126 125 127 133 139 142 146 156 169 176 180 182 181 178 174 173 173 175 177 177 176 175 176 174 171 169 167 164 163 167 171 173 175 175 175 184 192 190 183 180 180 177 175 175 170 162 158 163 170 171 173 176 179 183 188 190 192 198 201 204 210 215 218 222 228 231 236 241 242 246 253 256 257 261 265 265 265
150 134 120 121 123 121 118 115 116 121 126 126 128 135 142 145 148 153 158 164 170 176 179 179 178 176 175 177 178 178 176 176 177 176 173 172 171 170 170 172 176 182 186 181 179 188 197 192 183 181 180 178 179 179 172 162 156 164 176 177 178 182 184 186 191 195 197 201 206 210 215 220 224 228 231 234 239 243 245 247 253 255 256 261 265 267 268
162 149 131 125 128 130 127 120 114 117 123 125 125 132 142 149 156 160 161 160 161 166 174 179 179 177 176 177 178 177 177 177 176 174 174 174 173 173 174 174 178 187 192 188 190 201 203 190 182 182 180 178 185 189 180 169 162 165 176 179 183 188 189 191 197 203 205 208 212 216 220 223 226 230 233 235 238 243 247 250 254 258 261 264 266 267 269
168 159 145 134 129 129 132 131 125 120 123 128 131 132 135 145 161 170 172 170 167 164 171 178 178 176 176 179 178 176 175 174 172 172 173 174 174 175 175 175 183 196 199 194 195 200 191 179 179 183 179 177 186 192 186 180 178 181 184 186 190 194 196 201 206 209 213 219 222 225 229 232 234 237 240 242 244 247 249 252 256 259 261 264 266 269 271
171 167 158 145 137 133 135 141 142 136 131 133 136 133 132 143 162 173 177 178 176 170 171 175 175 172 174 178 178 175 173 172 170 170 171 173 176 181 181 179 186 198 200 192 187 183 177 176 182 185 180 182 190 188 179 180 189 196 196 197 200 201 204 211 215 217 222 226 229 232 235 237 240 244 246 248 251 253 255 258 261 262 264 266 268 271 274
169 169 161 151 143 135 131 140 150 155 152 143 133 128 132 145 158 164 168 173 173 169 165 165 166 165 168 174 177 176 174 173 172 170 170 173 177 180 181 181 188 195 191 183 177 173 172 178 186 182 178 184 192 183 176 180 193 200 202 207 208 206 211 217 221 226 233 235 237 242 244 243 246 250 251 253 255 256 258 260 261 262 265 268 269 272 275
161 166 163 157 151 140 130 133 144 160 167 158 142 130 134 147 148 141 142 157 173 174 166 160 159 161 163 165 167 169 170 172 174 174 173 174 177 180 182 187 192 188 175 168 170 174 177 183 188 184 181 181 180 177 180 189 198 201 205 211 211 212 220 226 228 234 241 242 244 247 248 248 251 254 255 256 258 258 259 263 265 265 267 269 270 271 274
162 167 164 160 157 150 139 133 133 141 158 163 155 143 140 147 148 144 141 145 166 179 174 167 165 167 166 162 162 164 165 168 173 175 174 174 178 181 183 187 188 177 166 163 170 181 186 188 191 191 190 189 185 182 189 199 204 205 211 217 218 222 229 232 235 240 244 245 246 248 247 248 252 255 257 259 261 262 263 265 266 267 267 268 269 270 272
170 168 165 167 170 164 154 147 147 146 149 162 168 165 160 156 156 159 159 153 147 158 171 175 176 175 171 165 163 165 167 168 170 172 173 174 176 176 178 182 181 172 166 169 180 192 197 199 201 200 195 193 192 194 199 206 210 215 220 223 227 231 234 236 239 243 245 246 247 247 247 249 252 255 256 259 261 262 264 266 267 269 270 271 271 272 273
169 163 162 170 177 175 167 165 169 164 156 158 172 177 174 166 161 167 172 164 150 148 165 177 178 176 173 168 165 168 171 172 171 171 173 175 175 175 179 185 184 175 170 176 191 201 201 199 200 200 197 195 197 202 208 212 217 224 228 230 234 236 237 238 241 243 245 247 248 246 247 250 253 255 258 261 262 263 265 267 267 269 269 269 270 273 274
163 164 164 168 175 177 174 175 180 175 166 163 170 178 177 171 166 169 174 169 158 153 158 166 167 171 176 178 177 175 175 174 173 174 176 177 178 178 182 188 190 184 179 183 196 206 207 201 198 197 197 198 200 205 212 217 223 228 231 233 236 237 237 238 240 241 243 246 249 250 252 256 257 258 261 264 264 267 269 271 272 273 273 273 274 275 276
165 169 169 169 176 181 180 178 177 171 166 169 178 182 180 177 175 175 174 168 162 159 162 168 172 178 184 186 185 182 180 178 177 176 176 177 179 180 184 192 197 195 191 192 201 210 215 215 211 203 200 200 204 209 215 220 225 230 232 232 234 236 236 238 241 244 246 249 252 254 256 258 259 261 263 265 266 269 271 272 273 275 276 277 277 278 277
171 169 165 164 171 177 175 172 170 169 168 173 179 180 177 177 179 179 175 171 169 171 174 178 181 182 182 181 182 184 187 188 188 184 180 181 185 187 190 198 203 201 198 200 205 207 209 211 210 206 203 203 207 213 219 222 225 230 232 232 233 235 236 238 242 246 250 253 256 258 259 260 260 261 263 266 268 271 273 275 277 279 279 280 280 280 278